Погода во Львове

Украина / Львовская область     49°50′22″N   24°01′46″E
темп.,
°C
ветер,
м/с
пор.,
м/с
влажн.,
%
обл.,
%
осадки,
мм/ч
давл.,
гПа
погр.,
м
10 мая, пн
пн1000:00+7ююв348241 0.0 102361
03:00+6ююв410845 0.0 1023147
06:00+5ююв48865 0.0 1022131
09:00+11ююв58705 0.0 1022296
12:00+16юв68605 0.0 1021655
15:00+19юв67585 0.0 1020895
18:00+18юв69685 0.0 1019690
21:00+13юв513785 0.0 1020336
11 мая, вт
вт1100:00+11юв614775 0.0 1020329
03:00+10юв513791 0.0 1019272
06:00+9юв514820 0.0 1019341
09:00+12юв714720 0.0 1019485
12:00+17юв810610 0.0 1018862
15:00+18юв89580 0.0 10171053
18:00+18вюв710650 0.0 1015977
21:00+12вюв514730 0.0 1015357
12 мая, ср
ср1200:00+11вюв616640 0.0 1015407
03:00+9вюв412891 0.0 1014271
06:00+9в411955 0.0 1012248
09:00+14вюв7118567 0.0 1012676
12:00+13вюв9117699 0.0 1012803
15:00+13юв8126983 0.0 1011892
18:00+13юв712717 0.0 10091062
21:00+8вюв5138689 0.0 1009484
13 мая, чт
чт1300:00+9вюв81676100 0.0 1008713
03:00+9юв71477100 0.1 1006564
06:00+7юв51188100 0.0 1005373
09:00+8юв51096100 0.9 1004265
12:00+11ююв6991100 0.1 1005358
15:00+10ююв4896100 1.4 1005250
18:00+12юв4694100 0.7 1005338
21:00+10юв4897100 0.7 1005262
14 мая, пт
пт1400:00+10ююв389898 0.0 1005187
03:00+10ююз3794100 0.0 1005142
06:00+10юз3693100 0.0 1006143
09:00+13юз367961 0.0 1007642
12:00+17юз6962100 0.2 10071626
15:00+17юз8959100 0.3 10071582
18:00+16зюз466886 0.2 10081100
21:00+11зюз48869 0.5 1010127